Location: Gad�tanya
(48.0500°N, 20.8500°E)
Time: 11:31:36
(UTC+00:00)

Cosmos 1151 Rocket - Pass Details

Date: 05 July 2020
Orbit: 591 x 617 km, 82.5° (Epoch: 14 August)

Event Time Altitude Azimuth Distance (km) Brightness Sun altitude
Rises 21:55:15 0° 352° (N) 2,882 8.2 -18.5°
Reaches altitude 10° 21:57:30 10° 355° (N) 1,969 6.9 -18.6°
Maximum altitude 22:01:50 68° 79° (ENE) 655 3.1 -18.7°
Enters shadow 22:03:13 41° 147° (SSE) 877 3.4 -18.8°
